| time (UTC) | temp F | wind direction | speed MPH | gust MPH | rain 1hr in | rain 24hr in | rain mn in | humidity % | barometer mb |
| 20260509142525 | 69 | 53 | 0.0 | 0.0 | 0.00 | 0.00 | 0.00 | 89 | 1013.6 |
| 20260509142125 | 68 | 53 | 0.0 | 0.0 | 0.00 | 0.00 | 0.00 | 92 | 1013.7 |
| 20260509141524 | 68 | 53 | 0.0 | 0.0 | 0.00 | 0.00 | 0.00 | 92 | 1013.6 |
| 20260509141024 | 67 | 53 | 0.0 | 0.0 | 0.00 | 0.00 | 0.00 | 92 | 1013.6 |
| 20260509140524 | 67 | 53 | 0.0 | 0.0 | 0.00 | 0.00 | 0.00 | 92 | 1013.7 |
| 20260509140034 | 67 | 53 | 0.0 | 0.0 | 0.00 | 0.00 | 0.00 | 92 | 1013.9 |
| 20260509135526 | 67 | 53 | 0.0 | 0.0 | 0.00 | 0.00 | 0.00 | 93 | 1013.7 |
| 20260509135024 | 67 | 31 | 0.0 | 0.0 | 0.00 | 0.00 | 0.00 | 94 | 1014.0 |
| 20260509134520 | 66 | 31 | 0.0 | 0.0 | 0.00 | 0.00 | 0.00 | 94 | 1014.1 |
| 20260509134019 | 66 | 31 | 0.0 | 0.0 | 0.00 | 0.00 | 0.00 | 95 | 1014.0 |
| 20260509133518 | 66 | 31 | 0.0 | 0.0 | 0.00 | 0.00 | 0.00 | 95 | 1013.9 |
| 20260509133017 | 65 | 31 | 0.0 | 0.0 | 0.00 | 0.00 | 0.00 | 95 | 1013.9 |
| 20260509132516 | 65 | 31 | 0.0 | 0.0 | 0.00 | 0.00 | 0.00 | 95 | 1013.9 |
| 20260509132115 | 65 | 31 | 0.0 | 0.0 | 0.00 | 0.00 | 0.00 | 96 | 1013.9 |
| 20260509131528 | 65 | 31 | 0.0 | 0.0 | 0.00 | 0.00 | 0.00 | 96 | 1013.8 |
| 20260509131014 | 65 | 31 | 0.0 | 0.0 | 0.00 | 0.00 | 0.00 | 96 | 1013.8 |
| 20260509130515 | 64 | 31 | 0.0 | 0.0 | 0.00 | 0.00 | 0.00 | 97 | 1013.8 |
| 20260509130023 | 64 | 31 | 0.0 | 0.0 | 0.00 | 0.00 | 0.00 | 98 | 1013.7 |
| 20260509125512 | 64 | 31 | 0.0 | 0.0 | 0.00 | 0.00 | 0.00 | 98 | 1013.6 |
| 20260509125013 | 63 | 31 | 0.0 | 0.0 | 0.00 | 0.00 | 0.00 | 98 | 1013.6 |
| 20260509124515 | 63 | 35 | 0.0 | 0.0 | 0.00 | 0.00 | 0.00 | 98 | 1013.6 |
| 20260509124009 | 63 | 260 | 0.0 | 0.0 | 0.00 | 0.00 | 0.00 | 98 | 1013.7 |
| 20260509123508 | 62 | 260 | 0.0 | 0.0 | 0.00 | 0.00 | 0.00 | 98 | 1013.7 |
| 20260509123009 | 62 | 260 | 0.0 | 0.0 | 0.00 | 0.00 | 0.00 | 99 | 1013.8 |
| 20260509122506 | 62 | 259 | 0.0 | 0.0 | 0.00 | 0.00 | 0.00 | 99 | 1013.8 |
| 20260509122107 | 62 | 260 | 0.0 | 0.0 | 0.00 | 0.00 | 0.00 | 99 | 1014.0 |
| 20260509121511 | 62 | 260 | 0.0 | 0.0 | 0.00 | 0.00 | 0.00 | 99 | 1014.0 |
| 20260509121008 | 61 | 260 | 0.0 | 0.0 | 0.00 | 0.00 | 0.00 | 99 | 1014.0 |
| 20260509120506 | 61 | 259 | 0.0 | 0.0 | 0.00 | 0.00 | 0.00 | 99 | 1014.0 |
| 20260509120004 | 61 | 260 | 0.0 | 0.0 | 0.00 | 0.00 | 0.00 | 99 | 1014.1 |
| 20260509115503 | 61 | 259 | 0.0 | 0.0 | 0.00 | 0.00 | 0.00 | 99 | 1013.8 |
| 20260509115003 | 61 | 260 | 0.0 | 0.0 | 0.00 | 0.00 | 0.00 | 99 | 1013.8 |
| 20260509114503 | 60 | 260 | 0.0 | 0.0 | 0.00 | 0.00 | 0.00 | 99 | 1013.8 |
| 20260509114003 | 60 | 259 | 0.0 | 0.0 | 0.00 | 0.00 | 0.00 | 99 | 1013.7 |
| 20260509113502 | 60 | 259 | 0.0 | 0.0 | 0.00 | 0.00 | 0.00 | 99 | 1013.7 |
| 20260509113001 | 60 | 260 | 0.0 | 0.0 | 0.00 | 0.00 | 0.00 | 99 | 1013.6 |
| 20260509112601 | 60 | 260 | 0.0 | 0.0 | 0.00 | 0.00 | 0.00 | 99 | 1013.5 |
| 20260509112059 | 58 | 260 | 0.0 | 0.0 | 0.00 | 0.00 | 0.00 | 99 | 1013.3 |
| 20260509111606 | 58 | 260 | 0.0 | 0.0 | 0.00 | 0.00 | 0.00 | 99 | 1013.4 |
| 20260509111058 | 57 | 259 | 0.0 | 0.0 | 0.00 | 0.00 | 0.00 | 99 | 1013.5 |
| 20260509110557 | 57 | 259 | 0.0 | 4.0 | 0.00 | 0.00 | 0.00 | 99 | 1013.6 |
| 20260509110059 | 57 | 260 | 0.0 | 1.0 | 0.00 | 0.00 | 0.00 | 99 | 1013.5 |
| 20260509105556 | 57 | 260 | 0.0 | 0.0 | 0.00 | 0.00 | 0.00 | 99 | 1013.4 |
| 20260509105156 | 57 | 260 | 0.0 | 0.0 | 0.00 | 0.00 | 0.00 | 99 | 1013.5 |
| 20260509104556 | 57 | 260 | 0.0 | 0.0 | 0.00 | 0.00 | 0.00 | 99 | 1013.5 |
| 20260509104055 | 56 | 260 | 0.0 | 0.0 | 0.00 | 0.00 | 0.00 | 99 | 1013.4 |
| 20260509103555 | 56 | 260 | 0.0 | 0.0 | 0.00 | 0.00 | 0.00 | 99 | 1013.3 |
| 20260509103057 | 56 | 260 | 0.0 | 0.0 | 0.00 | 0.00 | 0.00 | 99 | 1013.3 |
| 20260509102557 | 56 | 260 | 0.0 | 0.0 | 0.00 | 0.00 | 0.00 | 99 | 1013.2 |
| 20260509102055 | 56 | 260 | 0.0 | 0.0 | 0.00 | 0.00 | 0.00 | 99 | 1013.1 |
| 20260509101503 | 56 | 260 | 0.0 | 0.0 | 0.00 | 0.00 | 0.00 | 98 | 1013.1 |
| 20260509101004 | 56 | 260 | 0.0 | 0.0 | 0.00 | 0.00 | 0.00 | 98 | 1013.1 |
| 20260509100502 | 56 | 260 | 0.0 | 0.0 | 0.00 | 0.00 | 0.00 | 99 | 1013.2 |
| 20260509100003 | 56 | 260 | 0.0 | 0.0 | 0.00 | 0.00 | 0.00 | 98 | 1013.3 |
| 20260509095504 | 56 | 260 | 0.0 | 0.0 | 0.00 | 0.00 | 0.00 | 98 | 1013.4 |
| 20260509095101 | 57 | 260 | 0.0 | 0.0 | 0.00 | 0.00 | 0.00 | 98 | 1013.4 |
| 20260509095001 | 57 | 260 | 0.0 | 0.0 | 0.00 | 0.00 | 0.00 | 98 | 1013.4 |
| 20260509094501 | 57 | 260 | 0.0 | 0.0 | 0.00 | 0.00 | 0.00 | 98 | 1013.5 |
| 20260509094100 | 57 | 260 | 0.0 | 0.0 | 0.00 | 0.00 | 0.00 | 99 | 1013.6 |
| 20260509093600 | 57 | 260 | 0.0 | 0.0 | 0.00 | 0.00 | 0.00 | 98 | 1013.5 |
| 20260509093100 | 57 | 260 | 0.0 | 0.0 | 0.00 | 0.00 | 0.00 | 98 | 1013.4 |
| 20260509092600 | 57 | 260 | 0.0 | 0.0 | 0.00 | 0.00 | 0.00 | 98 | 1013.5 |
| 20260509092059 | 57 | 260 | 0.0 | 0.0 | 0.00 | 0.00 | 0.00 | 98 | 1013.5 |
| 20260509091553 | 57 | 260 | 0.0 | 0.0 | 0.00 | 0.00 | 0.00 | 99 | 1013.5 |
| 20260509091053 | 57 | 260 | 0.0 | 0.0 | 0.00 | 0.00 | 0.00 | 98 | 1013.4 |
| 20260509090552 | 57 | 260 | 0.0 | 0.0 | 0.00 | 0.00 | 0.00 | 98 | 1013.4 |
| 20260509090105 | 57 | 260 | 0.0 | 0.0 | 0.00 | 0.00 | 0.00 | 98 | 1013.6 |
| 20260509085553 | 57 | 260 | 0.0 | 0.0 | 0.00 | 0.00 | 0.00 | 98 | 1013.7 |
| 20260509085051 | 57 | 260 | 0.0 | 1.0 | 0.00 | 0.00 | 0.00 | 98 | 1013.8 |
| 20260509084558 | 57 | 260 | 0.0 | 1.0 | 0.00 | 0.00 | 0.00 | 98 | 1013.6 |
| 20260509084051 | 57 | 260 | 0.0 | 1.0 | 0.00 | 0.00 | 0.00 | 98 | 1013.3 |
| 20260509083550 | 57 | 260 | 0.0 | 0.0 | 0.00 | 0.00 | 0.00 | 98 | 1013.4 |
| 20260509083058 | 57 | 260 | 0.0 | 0.0 | 0.00 | 0.00 | 0.00 | 98 | 1013.6 |
| 20260509082549 | 57 | 260 | 0.0 | 0.0 | 0.00 | 0.00 | 0.00 | 98 | 1013.6 |
| 20260509082053 | 57 | 260 | 0.0 | 0.0 | 0.00 | 0.00 | 0.00 | 98 | 1013.8 |
| 20260509081548 | 57 | 260 | 0.0 | 0.0 | 0.00 | 0.00 | 0.00 | 98 | 1013.8 |
| 20260509081047 | 57 | 260 | 0.0 | 1.0 | 0.00 | 0.00 | 0.00 | 98 | 1013.8 |
| 20260509080548 | 57 | 260 | 0.0 | 1.0 | 0.00 | 0.00 | 0.00 | 98 | 1013.9 |
| 20260509080048 | 57 | 260 | 0.0 | 1.0 | 0.00 | 0.00 | 0.00 | 98 | 1013.7 |
| 20260509075548 | 57 | 260 | 0.0 | 1.0 | 0.00 | 0.00 | 0.00 | 98 | 1013.6 |
| 20260509075046 | 57 | 260 | 0.0 | 0.0 | 0.00 | 0.00 | 0.00 | 98 | 1013.7 |
| 20260509074544 | 57 | 260 | 0.0 | 0.0 | 0.00 | 0.00 | 0.00 | 98 | 1014.1 |
| 20260509074044 | 57 | 260 | 0.0 | 0.0 | 0.00 | 0.00 | 0.00 | 98 | 1014.1 |
| 20260509073543 | 57 | 260 | 0.0 | 0.0 | 0.00 | 0.00 | 0.00 | 98 | 1014.1 |
| 20260509073047 | 57 | 260 | 0.0 | 0.0 | 0.00 | 0.00 | 0.00 | 98 | 1014.3 |
| 20260509072546 | 58 | 260 | 0.0 | 1.0 | 0.00 | 0.00 | 0.00 | 98 | 1014.4 |
| 20260509072043 | 57 | 260 | 0.0 | 2.0 | 0.00 | 0.00 | 0.00 | 98 | 1014.5 |
| 20260509071543 | 57 | 260 | 0.0 | 2.0 | 0.00 | 0.00 | 0.00 | 99 | 1014.5 |
| 20260509071042 | 57 | 103 | 0.0 | 1.0 | 0.00 | 0.00 | 0.00 | 98 | 1014.5 |
| 20260509070541 | 57 | 102 | 0.0 | 0.0 | 0.00 | 0.00 | 0.00 | 98 | 1014.5 |
| 20260509070042 | 57 | 103 | 0.0 | 1.0 | 0.00 | 0.00 | 0.00 | 98 | 1014.4 |
| 20260509065540 | 57 | 103 | 0.0 | 1.0 | 0.00 | 0.00 | 0.00 | 99 | 1014.5 |
| 20260509065043 | 57 | 102 | 0.0 | 0.0 | 0.00 | 0.00 | 0.00 | 98 | 1014.4 |
| 20260509064544 | 57 | 103 | 0.0 | 0.0 | 0.00 | 0.00 | 0.00 | 98 | 1014.4 |
| 20260509064039 | 57 | 102 | 0.0 | 1.0 | 0.00 | 0.00 | 0.00 | 98 | 1014.4 |
| 20260509063537 | 57 | 103 | 0.0 | 1.0 | 0.00 | 0.00 | 0.00 | 98 | 1014.5 |
| 20260509063038 | 56 | 102 | 0.0 | 0.0 | 0.00 | 0.00 | 0.00 | 98 | 1014.4 |
| 20260509062537 | 56 | 102 | 0.0 | 0.0 | 0.00 | 0.00 | 0.00 | 98 | 1014.6 |
| 20260509062037 | 56 | 103 | 0.0 | 0.0 | 0.00 | 0.00 | 0.00 | 98 | 1014.6 |
| 20260509061541 | 56 | 102 | 0.0 | 0.0 | 0.00 | 0.00 | 0.00 | 98 | 1014.5 |
| 20260509061035 | 56 | 103 | 0.0 | 0.0 | 0.00 | 0.00 | 0.00 | 98 | 1014.5 |
| 20260509060534 | 56 | 103 | 0.0 | 0.0 | 0.00 | 0.00 | 0.00 | 98 | 1014.7 |
| 20260509060037 | 56 | 103 | 0.0 | 0.0 | 0.00 | 0.00 | 0.00 | 98 | 1014.8 |
| 20260509055533 | 56 | 103 | 0.0 | 0.0 | 0.00 | 0.00 | 0.00 | 98 | 1014.9 |
| 20260509055033 | 56 | 103 | 0.0 | 0.0 | 0.00 | 0.00 | 0.00 | 98 | 1015.1 |
| 20260509054531 | 56 | 102 | 0.0 | 0.0 | 0.00 | 0.00 | 0.00 | 98 | 1015.1 |
| 20260509054030 | 56 | 103 | 0.0 | 0.0 | 0.00 | 0.00 | 0.00 | 98 | 1015.3 |
| 20260509053530 | 56 | 103 | 0.0 | 0.0 | 0.00 | 0.00 | 0.00 | 98 | 1015.3 |
| 20260509053042 | 56 | 102 | 0.0 | 0.0 | 0.00 | 0.00 | 0.00 | 98 | 1015.3 |
| 20260509052529 | 55 | 103 | 0.0 | 0.0 | 0.00 | 0.00 | 0.00 | 98 | 1015.2 |
| 20260509052029 | 55 | 103 | 0.0 | 0.0 | 0.00 | 0.00 | 0.00 | 98 | 1015.2 |
| 20260509051530 | 55 | 103 | 0.0 | 0.0 | 0.00 | 0.00 | 0.00 | 98 | 1015.2 |
| 20260509051029 | 55 | 102 | 0.0 | 0.0 | 0.00 | 0.00 | 0.00 | 98 | 1015.2 |
| 20260509050528 | 55 | 103 | 0.0 | 0.0 | 0.00 | 0.00 | 0.00 | 98 | 1015.2 |
| 20260509050030 | 55 | 102 | 0.0 | 0.0 | 0.00 | 0.00 | 0.00 | 98 | 1015.2 |
| 20260509045528 | 55 | 102 | 0.0 | 0.0 | 0.00 | 0.00 | 0.00 | 98 | 1015.3 |
| 20260509045028 | 55 | 103 | 0.0 | 0.0 | 0.00 | 0.00 | 0.00 | 98 | 1015.2 |
| 20260509044527 | 55 | 103 | 0.0 | 0.0 | 0.00 | 0.00 | 0.00 | 98 | 1015.2 |
| 20260509044027 | 55 | 102 | 0.0 | 0.0 | 0.00 | 0.00 | 0.00 | 98 | 1015.3 |
| 20260509043526 | 55 | 103 | 0.0 | 0.0 | 0.00 | 0.00 | 0.00 | 98 | 1015.3 |
| 20260509043025 | 55 | 102 | 0.0 | 0.0 | 0.00 | 0.00 | 0.00 | 98 | 1015.4 |
| 20260509042524 | 55 | 103 | 0.0 | 0.0 | 0.00 | 0.00 | 0.00 | 98 | 1015.4 |
| 20260509042024 | 55 | 103 | 0.0 | 0.0 | 0.00 | 0.00 | 0.00 | 98 | 1015.6 |
| 20260509041535 | 55 | 102 | 0.0 | 0.0 | 0.00 | 0.00 | 0.00 | 98 | 1015.6 |
| 20260509041022 | 55 | 102 | 0.0 | 0.0 | 0.00 | 0.00 | 0.00 | 98 | 1015.6 |
| 20260509040522 | 55 | 103 | 0.0 | 0.0 | 0.00 | 0.00 | 0.00 | 97 | 1015.8 |
| 20260509040020 | 55 | 103 | 0.0 | 0.0 | 0.00 | 0.00 | 0.00 | 97 | 1016.0 |
| 20260509035523 | 55 | 103 | 0.0 | 0.0 | 0.00 | 0.08 | 0.00 | 97 | 1015.8 |
| 20260509035019 | 55 | 103 | 0.0 | 0.0 | 0.00 | 0.08 | 0.00 | 97 | 1015.8 |
| 20260509034522 | 55 | 103 | 0.0 | 0.0 | 0.00 | 0.08 | 0.00 | 97 | 1015.8 |
| 20260509034020 | 55 | 103 | 0.0 | 0.0 | 0.00 | 0.08 | 0.00 | 97 | 1016.0 |
| 20260509033520 | 55 | 102 | 0.0 | 0.0 | 0.00 | 0.08 | 0.00 | 97 | 1016.0 |
| 20260509033020 | 55 | 102 | 0.0 | 0.0 | 0.00 | 0.08 | 0.00 | 97 | 1016.0 |
| 20260509032520 | 55 | 103 | 0.0 | 0.0 | 0.00 | 0.08 | 0.00 | 97 | 1016.1 |
| 20260509032019 | 55 | 103 | 0.0 | 0.0 | 0.00 | 0.08 | 0.00 | 97 | 1016.2 |
| 20260509031519 | 55 | 102 | 0.0 | 0.0 | 0.00 | 0.08 | 0.00 | 97 | 1016.2 |
| 20260509031020 | 55 | 103 | 0.0 | 0.0 | 0.00 | 0.08 | 0.00 | 97 | 1016.2 |
| 20260509030519 | 55 | 103 | 0.0 | 0.0 | 0.00 | 0.08 | 0.00 | 97 | 1016.0 |
| 20260509030021 | 55 | 103 | 0.0 | 0.0 | 0.00 | 0.08 | 0.00 | 97 | 1016.0 |
| 20260509025519 | 55 | 103 | 0.0 | 0.0 | 0.00 | 0.08 | 0.00 | 97 | 1016.0 |
| 20260509025019 | 55 | 102 | 0.0 | 0.0 | 0.00 | 0.08 | 0.00 | 96 | 1015.8 |
| 20260509024520 | 55 | 102 | 0.0 | 0.0 | 0.00 | 0.08 | 0.00 | 97 | 1015.9 |
| 20260509024019 | 55 | 102 | 0.0 | 0.0 | 0.00 | 0.08 | 0.00 | 97 | 1016.1 |
| 20260509023519 | 56 | 103 | 0.0 | 1.0 | 0.00 | 0.08 | 0.00 | 97 | 1016.2 |
| 20260509023019 | 56 | 102 | 0.0 | 1.0 | 0.00 | 0.08 | 0.00 | 97 | 1016.3 |
| 20260509022518 | 56 | 103 | 0.0 | 0.0 | 0.00 | 0.08 | 0.00 | 97 | 1016.2 |
| 20260509022022 | 55 | 103 | 0.0 | 0.0 | 0.00 | 0.08 | 0.00 | 96 | 1016.2 |
| 20260509021022 | 55 | 102 | 0.0 | 0.0 | 0.00 | 0.08 | 0.00 | 96 | 1016.2 |
| 20260509020520 | 55 | 102 | 0.0 | 0.0 | 0.00 | 0.08 | 0.00 | 96 | 1016.1 |
| 20260509020023 | 56 | 102 | 0.0 | 0.0 | 0.00 | 0.08 | 0.00 | 96 | 1016.2 |
| 20260509015518 | 56 | 102 | 0.0 | 0.0 | 0.00 | 0.08 | 0.00 | 96 | 1016.2 |
| 20260509015019 | 56 | 103 | 0.0 | 0.0 | 0.00 | 0.08 | 0.00 | 96 | 1016.1 |
| 20260509014517 | 56 | 103 | 0.0 | 0.0 | 0.00 | 0.08 | 0.00 | 96 | 1015.9 |
| 20260509014023 | 55 | 103 | 0.0 | 0.0 | 0.00 | 0.08 | 0.00 | 95 | 1015.9 |
| 20260509013520 | 55 | 103 | 0.0 | 0.0 | 0.00 | 0.08 | 0.00 | 95 | 1015.9 |
| 20260509013018 | 55 | 102 | 0.0 | 0.0 | 0.00 | 0.08 | 0.00 | 95 | 1015.8 |
| 20260509012520 | 55 | 102 | 0.0 | 0.0 | 0.00 | 0.08 | 0.00 | 95 | 1015.8 |
| 20260509012018 | 56 | 102 | 0.0 | 0.0 | 0.00 | 0.08 | 0.00 | 94 | 1015.7 |
| 20260509011526 | 56 | 102 | 0.0 | 0.0 | 0.00 | 0.08 | 0.00 | 94 | 1015.7 |
| 20260509011020 | 56 | 103 | 0.0 | 0.0 | 0.00 | 0.08 | 0.00 | 94 | 1015.7 |
| 20260509010519 | 56 | 102 | 0.0 | 0.0 | 0.00 | 0.08 | 0.00 | 93 | 1015.5 |
| 20260509010035 | 56 | 103 | 0.0 | 0.0 | 0.00 | 0.08 | 0.00 | 93 | 1015.5 |
| 20260509005519 | 56 | 103 | 0.0 | 0.0 | 0.00 | 0.08 | 0.00 | 93 | 1015.5 |
| 20260509005024 | 57 | 103 | 0.0 | 0.0 | 0.00 | 0.08 | 0.00 | 92 | 1015.5 |
| 20260509004525 | 57 | 103 | 0.0 | 0.0 | 0.00 | 0.08 | 0.00 | 91 | 1015.7 |
| 20260509004018 | 57 | 103 | 0.0 | 0.0 | 0.00 | 0.08 | 0.00 | 91 | 1015.8 |
| 20260509003519 | 58 | 103 | 0.0 | 0.0 | 0.00 | 0.08 | 0.00 | 91 | 1015.8 |
| 20260509003018 | 58 | 102 | 0.0 | 0.0 | 0.00 | 0.08 | 0.00 | 90 | 1015.7 |
| 20260509002518 | 58 | 103 | 0.0 | 0.0 | 0.00 | 0.08 | 0.00 | 90 | 1015.7 |
| 20260509002018 | 59 | 102 | 0.0 | 0.0 | 0.00 | 0.08 | 0.00 | 87 | 1015.6 |
| 20260509001516 | 59 | 103 | 0.0 | 0.0 | 0.00 | 0.08 | 0.00 | 87 | 1015.6 |
| 20260509001017 | 60 | 102 | 0.0 | 0.0 | 0.00 | 0.08 | 0.00 | 86 | 1015.7 |
| 20260509000515 | 60 | 103 | 0.0 | 0.0 | 0.00 | 0.08 | 0.00 | 85 | 1015.6 |
| 20260509000015 | 61 | 103 | 0.0 | 1.0 | 0.00 | 0.08 | 0.00 | 83 | 1015.6 |
| 20260508235515 | 61 | 103 | 0.0 | 1.0 | 0.00 | 0.08 | 0.00 | 82 | 1015.6 |
| 20260508235016 | 62 | 102 | 0.0 | 1.0 | 0.00 | 0.08 | 0.00 | 81 | 1015.5 |
| 20260508234522 | 62 | 103 | 0.0 | 1.0 | 0.00 | 0.08 | 0.00 | 80 | 1015.4 |
| 20260508234017 | 62 | 103 | 0.0 | 1.0 | 0.00 | 0.08 | 0.00 | 80 | 1015.4 |
| 20260508233516 | 63 | 102 | 0.0 | 1.0 | 0.00 | 0.08 | 0.00 | 79 | 1015.4 |
| 20260508233016 | 63 | 103 | 0.0 | 1.0 | 0.00 | 0.08 | 0.00 | 78 | 1015.5 |
| 20260508232514 | 63 | 103 | 0.0 | 2.0 | 0.00 | 0.08 | 0.00 | 77 | 1015.5 |
| 20260508232014 | 64 | 90 | 0.0 | 1.0 | 0.00 | 0.08 | 0.00 | 75 | 1015.3 |
| 20260508231514 | 64 | 90 | 0.0 | 1.0 | 0.00 | 0.08 | 0.00 | 75 | 1015.3 |
| 20260508231015 | 65 | 90 | 0.0 | 2.0 | 0.00 | 0.08 | 0.00 | 74 | 1015.3 |
| 20260508230513 | 65 | 90 | 0.0 | 3.0 | 0.00 | 0.08 | 0.00 | 72 | 1015.3 |
| 20260508230027 | 65 | 102 | 0.0 | 3.0 | 0.00 | 0.08 | 0.00 | 71 | 1015.1 |
| 20260508225515 | 65 | 121 | 0.0 | 1.0 | 0.00 | 0.08 | 0.00 | 69 | 1015.1 |
| 20260508225014 | 66 | 121 | 0.0 | 3.0 | 0.00 | 0.08 | 0.00 | 67 | 1015.1 |
| 20260508224515 | 66 | 121 | 0.0 | 4.0 | 0.00 | 0.08 | 0.00 | 65 | 1015.2 |
| 20260508224013 | 66 | 126 | 0.0 | 1.0 | 0.00 | 0.08 | 0.00 | 63 | 1015.2 |
| 20260508223513 | 66 | 125 | 0.0 | 3.0 | 0.00 | 0.08 | 0.00 | 62 | 1015.2 |
| 20260508223013 | 66 | 142 | 0.0 | 3.0 | 0.00 | 0.08 | 0.00 | 58 | 1015.2 |
| 20260508222514 | 67 | 89 | 1.0 | 3.0 | 0.00 | 0.08 | 0.00 | 56 | 1015.2 |
| 20260508222013 | 68 | 112 | 1.0 | 4.0 | 0.00 | 0.08 | 0.00 | 53 | 1014.9 |
| 20260508221530 | 68 | 79 | 1.0 | 4.0 | 0.00 | 0.08 | 0.00 | 53 | 1014.9 |
| 20260508221011 | 68 | 99 | 0.0 | 7.0 | 0.00 | 0.08 | 0.00 | 57 | 1015.0 |
| 20260508220514 | 68 | 119 | 2.0 | 7.0 | 0.00 | 0.08 | 0.00 | 53 | 1015.0 |
| 20260508220011 | 68 | 84 | 3.0 | 7.0 | 0.00 | 0.08 | 0.00 | 54 | 1015.0 |
| 20260508215511 | 69 | 104 | 1.0 | 6.0 | 0.00 | 0.08 | 0.00 | 56 | 1015.0 |
| 20260508215011 | 69 | 134 | 1.0 | 7.0 | 0.00 | 0.08 | 0.00 | 54 | 1015.1 |
| 20260508214510 | 69 | 91 | 3.0 | 7.0 | 0.00 | 0.08 | 0.00 | 54 | 1015.3 |
| 20260508214010 | 69 | 72 | 1.0 | 7.0 | 0.00 | 0.08 | 0.00 | 56 | 1015.3 |
| 20260508213509 | 69 | 86 | 2.0 | 7.0 | 0.00 | 0.08 | 0.00 | 56 | 1015.2 |
| 20260508213016 | 68 | 102 | 1.0 | 8.0 | 0.00 | 0.08 | 0.00 | 56 | 1015.2 |
| 20260508212511 | 69 | 76 | 2.0 | 8.0 | 0.00 | 0.08 | 0.00 | 58 | 1015.2 |
| 20260508212008 | 69 | 102 | 2.0 | 9.0 | 0.00 | 0.08 | 0.00 | 56 | 1015.3 |
| 20260508211511 | 69 | 92 | 2.0 | 9.0 | 0.00 | 0.08 | 0.00 | 57 | 1015.3 |
| 20260508211009 | 69 | 115 | 3.0 | 9.0 | 0.00 | 0.08 | 0.00 | 56 | 1015.3 |
| 20260508210509 | 70 | 68 | 3.0 | 7.0 | 0.00 | 0.08 | 0.00 | 57 | 1015.3 |
| 20260508210009 | 71 | 91 | 2.0 | 6.0 | 0.00 | 0.08 | 0.00 | 56 | 1015.2 |
| 20260508205512 | 70 | 77 | 1.0 | 6.0 | 0.00 | 0.08 | 0.00 | 56 | 1015.1 |
| 20260508205013 | 71 | 114 | 2.0 | 6.0 | 0.00 | 0.08 | 0.00 | 53 | 1015.2 |
| 20260508204511 | 71 | 95 | 2.0 | 7.0 | 0.00 | 0.08 | 0.00 | 56 | 1015.3 |
| 20260508204011 | 71 | 62 | 2.0 | 7.0 | 0.00 | 0.08 | 0.00 | 55 | 1015.2 |
| 20260508203507 | 71 | 85 | 2.0 | 8.0 | 0.00 | 0.08 | 0.00 | 57 | 1015.2 |
| 20260508203008 | 70 | 65 | 1.0 | 8.0 | 0.00 | 0.08 | 0.00 | 59 | 1015.0 |
| 20260508202511 | 70 | 46 | 2.0 | 6.0 | 0.00 | 0.08 | 0.00 | 60 | 1015.1 |
| 20260508202007 | 68 | 103 | 1.0 | 4.0 | 0.00 | 0.08 | 0.00 | 61 | 1015.3 |
| 20260508201505 | 68 | 91 | 1.0 | 4.0 | 0.00 | 0.08 | 0.00 | 61 | 1015.3 |
| 20260508201004 | 68 | 96 | 1.0 | 4.0 | 0.00 | 0.08 | 0.00 | 60 | 1015.3 |
| 20260508200505 | 68 | 77 | 1.0 | 3.0 | 0.00 | 0.08 | 0.00 | 61 | 1015.2 |
| 20260508200004 | 68 | 106 | 1.0 | 3.0 | 0.00 | 0.08 | 0.00 | 60 | 1015.4 |
| 20260508195504 | 69 | 62 | 2.0 | 7.0 | 0.00 | 0.08 | 0.00 | 57 | 1015.4 |
| 20260508195003 | 69 | 37 | 1.0 | 9.0 | 0.00 | 0.08 | 0.00 | 57 | 1015.4 |
| 20260508194504 | 71 | 77 | 2.0 | 9.0 | 0.00 | 0.08 | 0.00 | 54 | 1015.5 |
| 20260508194002 | 72 | 78 | 1.0 | 5.0 | 0.00 | 0.08 | 0.00 | 52 | 1015.5 |
| 20260508193504 | 72 | 88 | 1.0 | 5.0 | 0.00 | 0.08 | 0.00 | 50 | 1015.4 |
| 20260508193001 | 72 | 93 | 1.0 | 4.0 | 0.00 | 0.08 | 0.00 | 53 | 1015.5 |
| 20260508192603 | 71 | 269 | 0.0 | 3.0 | 0.00 | 0.08 | 0.00 | 51 | 1015.5 |
| 20260508192100 | 71 | 134 | 1.0 | 4.0 | 0.00 | 0.08 | 0.00 | 54 | 1015.8 |
| 20260508191100 | 71 | 124 | 2.0 | 17.0 | 0.00 | 0.08 | 0.00 | 51 | 1015.8 |
| 20260508190600 | 71 | 51 | 2.0 | 15.0 | 0.00 | 0.08 | 0.00 | 53 | 1015.8 |
| 20260508190059 | 70 | 149 | 1.0 | 6.0 | 0.00 | 0.08 | 0.00 | 55 | 1015.8 |
| 20260508185658 | 70 | 68 | 2.0 | 8.0 | 0.00 | 0.09 | 0.00 | 52 | 1015.9 |
| 20260508185058 | 70 | 58 | 4.0 | 8.0 | 0.00 | 0.09 | 0.00 | 57 | 1016.0 |
| 20260508184557 | 70 | 85 | 0.0 | 8.0 | 0.00 | 0.09 | 0.00 | 55 | 1016.0 |
| 20260508184059 | 70 | 37 | 2.0 | 8.0 | 0.00 | 0.09 | 0.00 | 54 | 1016.1 |
| 20260508183557 | 70 | 63 | 2.0 | 6.0 | 0.00 | 0.09 | 0.00 | 60 | 1016.1 |
| 20260508183057 | 70 | 6 | 0.0 | 6.0 | 0.00 | 0.09 | 0.00 | 55 | 1016.2 |
| 20260508182557 | 70 | 41 | 2.0 | 6.0 | 0.00 | 0.09 | 0.00 | 58 | 1016.2 |
| 20260508182055 | 69 | 75 | 2.0 | 6.0 | 0.00 | 0.09 | 0.00 | 57 | 1016.2 |
| 20260508181056 | 69 | 124 | 2.0 | 6.0 | 0.00 | 0.09 | 0.00 | 57 | 1016.3 |
| 20260508180556 | 69 | 255 | 1.0 | 6.0 | 0.00 | 0.09 | 0.00 | 55 | 1016.4 |
| 20260508180056 | 69 | 63 | 3.0 | 8.0 | 0.00 | 0.09 | 0.00 | 57 | 1016.3 |
| 20260508175555 | 69 | 14 | 4.0 | 8.0 | 0.00 | 0.22 | 0.00 | 61 | 1016.3 |
| 20260508175055 | 69 | 25 | 2.0 | 7.0 | 0.00 | 0.22 | 0.00 | 56 | 1016.3 |
| 20260508174556 | 69 | 88 | 3.0 | 7.0 | 0.00 | 0.22 | 0.00 | 55 | 1016.3 |
| 20260508174054 | 69 | 110 | 2.0 | 6.0 | 0.00 | 0.22 | 0.00 | 56 | 1016.4 |
| 20260508173555 | 69 | 140 | 1.0 | 9.0 | 0.00 | 0.22 | 0.00 | 52 | 1016.4 |
| 20260508173053 | 69 | 61 | 3.0 | 8.0 | 0.00 | 0.22 | 0.00 | 56 | 1016.5 |
| 20260508172553 | 68 | 30 | 4.0 | 10.0 | 0.00 | 0.22 | 0.00 | 51 | 1016.6 |
| 20260508172053 | 68 | 30 | 1.0 | 10.0 | 0.00 | 0.22 | 0.00 | 59 | 1016.6 |
| 20260508171152 | 68 | 89 | 3.0 | 10.0 | 0.00 | 0.22 | 0.00 | 61 | 1016.6 |
| 20260508170552 | 67 | 2 | 4.0 | 10.0 | 0.00 | 0.22 | 0.00 | 55 | 1016.7 |
| 20260508170057 | 68 | 32 | 3.0 | 10.0 | 0.00 | 0.22 | 0.00 | 57 | 1016.7 |
| 20260508165549 | 67 | 55 | 3.0 | 10.0 | 0.00 | 0.28 | 0.00 | 56 | 1016.6 |
| 20260508165049 | 67 | 323 | 3.0 | 10.0 | 0.00 | 0.28 | 0.00 | 60 | 1016.7 |
| 20260508164550 | 67 | 11 | 3.0 | 10.0 | 0.00 | 0.28 | 0.00 | 61 | 1016.7 |
| 20260508164049 | 67 | 347 | 4.0 | 10.0 | 0.00 | 0.28 | 0.00 | 59 | 1016.7 |
| 20260508163549 | 67 | 2 | 4.0 | 10.0 | 0.00 | 0.28 | 0.00 | 60 | 1016.7 |
| 20260508163047 | 67 | 49 | 4.0 | 9.0 | 0.00 | 0.28 | 0.00 | 64 | 1016.7 |
| 20260508162548 | 67 | 44 | 2.0 | 9.0 | 0.00 | 0.28 | 0.00 | 67 | 1016.7 |
| 20260508162048 | 67 | 29 | 2.0 | 9.0 | 0.00 | 0.28 | 0.00 | 64 | 1016.8 |
| 20260508161046 | 67 | 76 | 3.0 | 9.0 | 0.00 | 0.28 | 0.00 | 65 | 1016.8 |
| 20260508160544 | 66 | 55 | 3.0 | 9.0 | 0.00 | 0.28 | 0.00 | 66 | 1016.9 |
| 20260508160045 | 66 | 32 | 4.0 | 8.0 | 0.00 | 0.28 | 0.00 | 64 | 1016.9 |
| 20260508155644 | 66 | 30 | 4.0 | 8.0 | 0.00 | 0.28 | 0.00 | 69 | 1017.0 |
| 20260508155044 | 66 | 53 | 3.0 | 8.0 | 0.00 | 0.28 | 0.00 | 69 | 1017.0 |
| 20260508154544 | 66 | 34 | 2.0 | 11.0 | 0.00 | 0.28 | 0.00 | 66 | 1017.0 |
| 20260508154041 | 65 | 79 | 2.0 | 11.0 | 0.00 | 0.28 | 0.00 | 72 | 1017.1 |
| 20260508153542 | 65 | 11 | 4.0 | 10.0 | 0.00 | 0.28 | 0.00 | 70 | 1017.0 |
| 20260508153041 | 65 | 65 | 3.0 | 11.0 | 0.00 | 0.28 | 0.00 | 71 | 1017.0 |
| 20260508152543 | 64 | 63 | 5.0 | 11.0 | 0.00 | 0.28 | 0.00 | 70 | 1017.0 |
| 20260508152039 | 64 | 354 | 4.0 | 10.0 | 0.00 | 0.28 | 0.00 | 73 | 1016.9 |
| 20260508151037 | 64 | 64 | 3.0 | 10.0 | 0.00 | 0.28 | 0.00 | 75 | 1016.9 |
| 20260508150538 | 64 | 49 | 3.0 | 9.0 | 0.00 | 0.28 | 0.00 | 77 | 1016.9 |
| 20260508150041 | 63 | 348 | 4.0 | 12.0 | 0.00 | 0.28 | 0.00 | 74 | 1016.9 |
| 20260508145539 | 63 | 63 | 2.0 | 9.0 | 0.00 | 0.28 | 0.00 | 78 | 1016.9 |
| 20260508145035 | 63 | 63 | 5.0 | 9.0 | 0.00 | 0.28 | 0.00 | 76 | 1016.9 |
| 20260508144537 | 63 | 271 | 2.0 | 6.0 | 0.00 | 0.28 | 0.00 | 79 | 1016.9 |
| 20260508144037 | 63 | 308 | 2.0 | 7.0 | 0.00 | 0.28 | 0.00 | 79 | 1016.9 |
| 20260508143533 | 63 | 60 | 1.0 | 8.0 | 0.00 | 0.28 | 0.00 | 81 | 1016.8 |
| 20260508143033 | 62 | 46 | 4.0 | 8.0 | 0.00 | 0.28 | 0.00 | 77 | 1016.8 |